Hibbing, MN

8:03 AM CST on November 22, 2017 (GMT -0600)
Chisholm-hibbing

Weather History for KHIB - July, 2013

Change the Weather History Date:

Friday, July 12, 2013

  Actual Average Record
Temperature  
Mean Temperature 73 °F -  
Max Temperature 86 °F 76 °F 91 °F (1966)
Min Temperature 60 °F 54 °F 33 °F (1996)
Cooling Degree Days 8    
Growing Degree Days 23 (Base 50)    
Moisture  
Dew Point 61 °F    
Average Humidity 62    
Maximum Humidity 86    
Minimum Humidity 49    
Precipitation  
Precipitation 0.00 in - - ()
Sea Level Pressure  
Sea Level Pressure 29.90 in    
Wind  
Wind Speed 5 mph (South)    
Max Wind Speed 16 mph    
Max Gust Speed 26 mph    
Visibility 10 miles    
Events Thunderstorm    
Averages and records for this station are not official NWS values.
T = Trace of Precipitation, MM = Missing Value Source: NWS Daily Summary

Daily Weather History Graph

Daily Weather History Graph

Search for Another Location

Airport or City:

Trip Planner

Search our weather history database for the weather conditions in past years. The results will help you decide how hot, cold, wet, or windy it might be!

Date:

Astronomy

Jul. 12, 2013 Rise Set
Actual Time 5:27 AM CDT 9:06 PM CDT
Civil Twilight 4:48 AM CDT 9:44 PM CDT
Nautical Twilight 3:56 AM CDT 10:36 PM CDT
Astronomical Twilight 2:43 AM CDT 11:48 PM CDT
Moon 10:06 AM CDT (7/12) 10:53 PM CDT (7/12)
Length of Visible Light 16h 56m
Length of Day
15h 38m
Waxing Crescent, 17% of the Moon is Illuminated
Jul 12
Waxing Crescent
Jul 15
First Quarter
Jul 22
Full
Jul 29
Last Quarter
Aug 6
New

Hourly Weather History & Observations

Time (CDT) Temp. Heat Index Dew Point Humidity Pressure Visibility Wind Dir Wind Speed Gust Speed Precip Events Conditions
12:53 AM 62.1 °F - 57.0 °F 84% 29.95 in 8.0 mi Calm Calm - N/A   Partly Cloudy
1:53 AM 60.1 °F - 55.9 °F 86% 29.95 in 7.0 mi Calm Calm - N/A   Partly Cloudy
2:53 AM 62.1 °F - 57.0 °F 84% 29.95 in 8.0 mi Calm Calm - N/A   Clear
3:53 AM 62.1 °F - 57.0 °F 84% 29.95 in 8.0 mi Calm Calm - N/A   Clear
4:53 AM 63.0 °F - 55.9 °F 78% 29.94 in 9.0 mi SSE 4.6 mph - N/A   Clear
5:53 AM 64.9 °F - 55.9 °F 73% 29.95 in 10.0 mi Variable 3.5 mph - N/A   Partly Cloudy
6:53 AM 66.9 °F - 57.0 °F 70% 29.95 in 10.0 mi South 8.1 mph - N/A   Partly Cloudy
7:53 AM 70.0 °F - 57.9 °F 65% 29.95 in 10.0 mi South 9.2 mph - N/A   Clear
8:53 AM 73.0 °F - 59.0 °F 61% 29.94 in 10.0 mi South 6.9 mph - N/A   Clear
9:53 AM 77.0 °F - 60.1 °F 56% 29.92 in 10.0 mi Variable 5.8 mph 16.1 mph N/A   Clear
10:53 AM 80.1 °F 81.2 °F 62.1 °F 54% 29.91 in 10.0 mi South 10.4 mph 17.3 mph N/A   Clear
11:53 AM 80.1 °F 81.2 °F 62.1 °F 54% 29.90 in 10.0 mi South 10.4 mph 19.6 mph N/A   Clear
12:53 PM 82.9 °F 84.4 °F 64.0 °F 53% 29.88 in 10.0 mi South 13.8 mph 21.9 mph N/A   Clear
1:53 PM 84.9 °F 86.1 °F 64.0 °F 49% 29.87 in 10.0 mi South 11.5 mph 23.0 mph N/A   Clear
2:53 PM 84.9 °F 86.6 °F 64.9 °F 51% 29.87 in 10.0 mi South 16.1 mph 26.5 mph N/A   Clear
3:53 PM 86.0 °F 87.6 °F 64.9 °F 49% 29.86 in 10.0 mi South 12.7 mph 21.9 mph N/A   Clear
4:53 PM 86.0 °F 87.6 °F 64.9 °F 49% 29.86 in 10.0 mi South 8.1 mph 24.2 mph N/A   Clear
5:53 PM 84.0 °F 85.8 °F 64.9 °F 53% 29.85 in 10.0 mi South 9.2 mph 18.4 mph N/A   Clear
6:53 PM 82.9 °F 84.6 °F 64.9 °F 54% 29.85 in 10.0 mi South 8.1 mph 19.6 mph N/A   Clear
7:53 PM 81.0 °F 82.2 °F 63.0 °F 54% 29.85 in 10.0 mi South 6.9 mph - N/A   Scattered Clouds
8:53 PM 79.0 °F - 63.0 °F 58% 29.85 in 10.0 mi Variable 6.9 mph - N/A   Partly Cloudy
9:53 PM 77.0 °F - 62.1 °F 60% 29.85 in 10.0 mi SSE 8.1 mph - N/A   Clear
10:53 PM 75.9 °F - 62.1 °F 62% 29.86 in 10.0 mi SSE 6.9 mph - N/A   Partly Cloudy
11:53 PM 77.0 °F - 61.0 °F 58% 29.91 in 10.0 mi South 4.6 mph - N/A Thunderstorm Mostly Cloudy